Regional Weather Roundup
Issued by NWS

Home | Current Version | Previous Version | Text Only | Print | Product List | Glossary Off
Versions: 1 2 3 4 5 6 7 8 9 10 11 12 13 14 15 16 17 18 19 20 21 22 23 24 25 26 27 28 29 30 31 32 33 34 35 36 37 38 39 40 41 42 43 44 45 46 47 48 49 50

000
ASUS43 KOAX 012010
RWRNE

WEATHER ROUNDUP FOR NEBRASKA
NATIONAL WEATHER SERVICE OMAHA NE
300 PM CDT WED OCT 01 2014

NOTES: SATELLITE DATA IS BEING USED TO AUGMENT CLOUD COVER ABOVE
       12000 FEET.
       "FAIR" INDICATES FEW OR NO CLOUDS BELOW 12,000 FEET WITH NO
       SIGNIFICANT WEATHER AND/OR OBSTRUCTIONS TO VISIBILITY.

  * THESE STATIONS DO NOT REPORT WEATHER SUCH AS RAIN...SNOW OR FOG.

NEZ001>004-019>022-054>056-012100-
NEBRASKA PANHANDLE

CITY           SKY/WX    TMP DP  RH WIND       PRES   REMARKS
SCOTTSBLUFF    MOSUNNY   66  43  43 VRB7      29.84F
ALLIANCE       MOSUNNY   64  45  49 VRB5      29.83F
CHADRON        PTSUNNY   62  47  57 NW9       29.85F
KIMBALL        CLOUDY    64  43  46 NE10      29.85F
SIDNEY         CLOUDY    65  43  44 N8        29.85F
$$

NEZ057>060-069>072-079>082-012100-
SOUTHWEST NEBRASKA

CITY           SKY/WX    TMP DP  RH WIND       PRES   REMARKS
NORTH PLATTE   MOSUNNY   74  44  34 VRB3      29.77F
IMPERIAL       MOSUNNY   74  44  34 NE8       29.79F
LEXINGTON      MOSUNNY   75  53  45 CALM      29.76F
MCCOOK         SUNNY     77  46  33 CALM      29.76F
OGALLALA       SUNNY     72  46  39 NE3       29.80F
$$

NEZ005>010-023>029-035>040-094-012100-
NORTH CENTRAL NEBRASKA

CITY           SKY/WX    TMP DP  RH WIND       PRES   REMARKS
VALENTINE      MOSUNNY   68  46  45 VRB7      29.81F
AINSWORTH      SUNNY     69  48  46 NW8       29.80F
BROKEN BOW     MOSUNNY   76  48  37 CALM      29.76F
O`NEILL        MOSUNNY   73  53  49 N9G16     29.77F
ORD            PTSUNNY   74  49  41 NE8       29.75F
THEDFORD       MOSUNNY   72  48  41 NW5       29.80F
$$

NEZ041-046>049-061>064-073>077-083>087-012100-
SOUTH CENTRAL NEBRASKA

CITY           SKY/WX    TMP DP  RH WIND       PRES   REMARKS
GRAND ISLAND   PTSUNNY   76  51  41 CALM      29.74F
AURORA         PTSUNNY   76  53  44 CALM      29.73F
HASTINGS       PTSUNNY   77  51  40 CALM      29.73F
HEBRON         MOSUNNY   78  59  52 CALM      29.71F
HOLDREGE       MOSUNNY   75  49  39 CALM      29.74F
KEARNEY *      PTSUNNY   75  55  50 NW3       29.76F
YORK           PTSUNNY   75  61  60 CALM      29.73F
$$

NEZ011>018-030>034-042>045-012100-
NORTHEAST NEBRASKA

CITY           SKY/WX    TMP DP  RH WIND       PRES   REMARKS
NORFOLK        PTSUNNY   77  56  48 MISG      29.72F
ALBION         PTSUNNY   75  55  50 N3        29.74F
BLAIR          MOSUNNY   76  62  63 SW3       29.73S
COLUMBUS *     PTSUNNY   75  55  50 CALM      29.74F
FREMONT        PTSUNNY   74  62  66 CALM      29.73F
TEKAMAH        PTSUNNY   77  63  61 S8        29.72S
WAYNE          MOSUNNY   79  53  40 W8        29.72F
$$

NEZ050>053-065>068-078-088>093-012100-
SOUTHEAST NEBRASKA

CITY           SKY/WX    TMP DP  RH WIND       PRES   REMARKS
LINCOLN        PTSUNNY   76  63  64 CALM      29.73F
OMAHA EPPLEY   PTSUNNY   73  62  68 SE6       29.72F
BEATRICE       PTSUNNY   76  62  60 CALM      29.71F HAZE
FALLS CITY     SUNNY     79  64  60 VRB3      29.70F
NEBRASKA CITY  PTSUNNY   74  61  63 CALM      29.72F
PLATTSMOUTH      N/A     72  62  70 CALM      29.73F
$$

NEZ044-045-051>053-067-012100-
OMAHA AREA

CITY           SKY/WX    TMP DP  RH WIND       PRES   REMARKS
OMAHA EPPLEY   PTSUNNY   73  62  68 SE6       29.72F
BLAIR          MOSUNNY   76  62  63 SW3       29.73S
FREMONT        PTSUNNY   74  62  66 CALM      29.73F
MILLARD        PTSUNNY   74  65  72 SE5       29.72F
OFFUTT AFB     PTSUNNY   73  68  82 VRB3      29.72F
PLATTSMOUTH      N/A     72  62  70 CALM      29.73F
WAHOO          FAIR      75  61  61 CALM      29.73S
$$



USA.gov is the U.S. government's official web portal to all federal, state and local government web resources and services.